Doha, Qatar

10:19 PM +03 on April 25, 2017 (GMT +0300)
Doha International

Weather History for OTBD - November, 2011

Change the Weather History Date:

Thursday, November 17, 2011

  Actual Average Record
Temperature  
Mean Temperature 84 °F -  
Max Temperature 94 °F 79 °F 93 °F (2011)
Min Temperature 74 °F 62 °F 64 °F (1997)
Cooling Degree Days 19    
Growing Degree Days 34 (Base 50)    
Moisture  
Dew Point 64 °F    
Average Humidity 56    
Maximum Humidity 89    
Minimum Humidity 22    
Precipitation  
Precipitation 0.00 in 0.01 in - ()
Sea Level Pressure  
Sea Level Pressure 29.97 in    
Wind  
Wind Speed 5 mph ()    
Max Wind Speed 10 mph    
Max Gust Speed -    
Visibility 6.0 miles    
Events      
Averages and records for this station are not official NWS values.
T = Trace of Precipitation, MM = Missing Value Source: Averaged Metar Reports

Daily Weather History Graph

Daily Weather History Graph

Search for Another Location

Airport or City:

Trip Planner

Search our weather history database for the weather conditions in past years. The results will help you decide how hot, cold, wet, or windy it might be!

Date:

Astronomy

Nov. 17, 2011 Rise Set
Actual Time 5:51 AM +03 4:45 PM +03
Civil Twilight 5:27 AM +03 5:09 PM +03
Nautical Twilight 4:59 AM +03 5:37 PM +03
Astronomical Twilight 4:32 AM +03 6:04 PM +03
Moon 10:29 PM +03 (11/17) 10:55 AM +03 (11/17)
Length of Visible Light 11h 41m
Length of Day
10h 53m
Waning Gibbous, 63% of the Moon is Illuminated
Nov 17
Waning Gibbous
Nov 18
Last Quarter
Nov 25
New
Dec 2
First Quarter
Dec 10
Full

Hourly Weather History & Observations

Time (+03) Temp. Heat Index Dew Point Humidity Pressure Visibility Wind Dir Wind Speed Gust Speed Precip Events Conditions
12:00 AM 78.8 °F - 73.4 °F 83% 29.95 in - SE 8.1 mph - N/A   Clear
12:30 AM 78.8 °F - 73.4 °F 83% 29.95 in - South 5.8 mph - N/A   Clear
1:00 AM 78.8 °F - 71.6 °F 78% 29.92 in - South 5.8 mph - N/A   Clear
1:30 AM 77.0 °F - 73.4 °F 89% 29.95 in - South 5.8 mph - N/A   Clear
2:00 AM 77.0 °F - 73.4 °F 89% 29.92 in - South 4.6 mph - N/A   Clear
2:30 AM 77.0 °F - 73.4 °F 89% 29.92 in - South 4.6 mph - N/A   Clear
3:00 AM 76 °F - 72 °F 84% 29.93 in 9 mi South 5.8 mph - -  
3:00 AM 77.0 °F - 71.6 °F 83% 29.92 in - South 5.8 mph - N/A   Clear
3:30 AM 75.2 °F - 71.6 °F 89% 29.92 in - SSW 4.6 mph - N/A   Clear
4:00 AM 75.2 °F - 71.6 °F 89% 29.92 in - SSW 5.8 mph - N/A   Clear
4:30 AM 75.2 °F - 71.6 °F 89% 29.92 in - South 5.8 mph - N/A   Clear
5:00 AM 75.2 °F - 71.6 °F 89% 29.92 in - South 4.6 mph - N/A   Clear
5:30 AM 75.2 °F - 69.8 °F 83% 29.95 in - SSW 5.8 mph - N/A   Clear
6:00 AM 75.2 °F - 69.8 °F 83% 29.95 in - South 5.8 mph - N/A   Clear
6:30 AM 75.2 °F - 68.0 °F 78% 29.98 in - South 5.8 mph - N/A   Clear
7:00 AM 77.0 °F - 66.2 °F 69% 29.98 in - SSW 5.8 mph - N/A   Clear
7:30 AM 78.8 °F - 64.4 °F 61% 30.01 in - SSW 8.1 mph - N/A   Clear
8:00 AM 80.6 °F 81.8 °F 62.6 °F 54% 30.01 in - SSW 9.2 mph - N/A   Clear
8:30 AM 84.2 °F 85.0 °F 62.6 °F 48% 30.01 in - SSW 10.4 mph - N/A   Clear
9:00 AM 86 °F - 62 °F 34% 30.02 in 9 mi SSW 9.2 mph - -   Clear
9:00 AM 86.0 °F 86.6 °F 62.6 °F 45% 30.01 in - SSW 9.2 mph - N/A   Clear
9:30 AM 87.8 °F 87.6 °F 60.8 °F 40% 30.01 in - WSW 6.9 mph - N/A   Clear
10:00 AM 86.0 °F 85.4 °F 59.0 °F 40% 30.01 in - West 5.8 mph - N/A   Clear
10:30 AM 87.8 °F 87.1 °F 59.0 °F 38% 30.01 in - West 6.9 mph - N/A   Clear
11:00 AM 87.8 °F 87.6 °F 60.8 °F 40% 30.01 in - West 9.2 mph - N/A   Clear
11:30 AM 89.6 °F 90.1 °F 62.6 °F 40% 29.98 in - West 6.9 mph - N/A   Clear
12:00 PM 91.4 °F 93.2 °F 64.4 °F 41% 29.98 in - WSW 3.5 mph - N/A   Clear
12:30 PM 93.2 °F 96.2 °F 66.2 °F 41% 29.95 in - WSW 6.9 mph - N/A   Clear
1:00 PM 93.2 °F - 51.8 °F 24% 29.95 in - WSW 5.8 mph - N/A   Clear
1:30 PM 93.2 °F - 51.8 °F 24% 29.92 in - WSW 6.9 mph - N/A   Clear
2:00 PM 93.2 °F - 50.0 °F 23% 29.92 in - WNW 4.6 mph - N/A   Clear
2:30 PM 93.2 °F - 51.8 °F 24% 29.95 in - Variable 4.6 mph - N/A   Clear
3:00 PM 90 °F - 56 °F 22% 29.95 in 7 mi North 5.8 mph - -   Clear
3:00 PM 89.6 °F 87.7 °F 55.4 °F 31% 29.95 in - North 5.8 mph - N/A   Clear
3:30 PM 87.8 °F 86.5 °F 57.2 °F 35% 29.95 in - NNE 6.9 mph - N/A   Clear
4:00 PM 87.8 °F 86.5 °F 57.2 °F 35% 29.95 in - ENE 4.6 mph - N/A   Clear
4:30 PM 86.0 °F 85.4 °F 59.0 °F 40% 29.95 in - NNE 5.8 mph - N/A   Clear
5:00 PM 84.2 °F 84.4 °F 60.8 °F 45% 29.95 in - NNE 4.6 mph - N/A   Clear
5:30 PM 82.4 °F 82.9 °F 60.8 °F 48% 29.95 in - NNE 4.6 mph - N/A   Clear
6:00 PM 82.4 °F 82.5 °F 59.0 °F 45% 29.98 in - NE 4.6 mph - N/A   Clear
6:30 PM 84.2 °F 82.8 °F 53.6 °F 35% 29.98 in 5.6 mi North 5.8 mph - N/A   Unknown
7:00 PM 80.6 °F 81.5 °F 60.8 °F 51% 29.98 in 5.6 mi North 3.5 mph - N/A   Unknown
7:30 PM 78.8 °F - 62.6 °F 57% 29.98 in 5.6 mi North 3.5 mph - N/A   Unknown
8:00 PM 78.8 °F - 62.6 °F 57% 29.98 in 5.6 mi North 3.5 mph - N/A   Unknown
8:30 PM 78.8 °F - 59.0 °F 51% 30.01 in 5.0 mi North 3.5 mph - N/A   Unknown
9:00 PM 80 °F - 56 °F 34% 30.01 in 5 mi North 4.6 mph - -   Widespread Dust
9:00 PM 80.6 °F 80.8 °F 57.2 °F 45% 30.01 in 5.0 mi North 4.6 mph - N/A   Unknown
9:30 PM 78.8 °F - 62.6 °F 57% 30.01 in 5.0 mi North 4.6 mph - N/A   Unknown
10:00 PM 78.8 °F - 66.2 °F 65% 30.01 in 5.0 mi North 3.5 mph - N/A   Unknown
10:30 PM 77.0 °F - 66.2 °F 69% 29.98 in 5.6 mi Variable 2.3 mph - N/A   Unknown
11:00 PM 77.0 °F - 68.0 °F 74% 29.98 in - North 3.5 mph - N/A   Clear
11:30 PM 77.0 °F - 68.0 °F 74% 29.98 in - NNW 3.5 mph - N/A   Clear